Regional Weather Roundup
Issued by NWS

Home | Current Version | Previous Version | Graphics & Text | Print | Product List | Glossary On
Versions: 1 2 3 4 5 6 7 8 9 10 11 12 13 14 15 16 17 18 19 20 21 22 23 24 25 26 27 28 29 30 31 32 33 34 35 36 37 38 39 40 41 42 43 44 45 46 47 48 49 50
000
ASUS43 KMKX 272100
RWRWI

WISCONSIN REGIONAL WEATHER ROUNDUP
NATIONAL WEATHER SERVICE MILWAUKEE/SULLIVAN WI
400 PM CDT TUE JUN 27 2017

NOTE: "FAIR" INDICATES FEW OR NO CLOUDS BELOW 12,000 FEET WITH NO
SIGNIFICANT WEATHER AND/OR OBSTRUCTIONS TO VISIBILITY.

WIZ001-002-006>008-014>016-023>028-272200-
NORTHWEST WISCONSIN

CITY           SKY/WX    TMP DP  RH WIND       PRES   REMARKS
SUPERIOR ARPT  NOT AVBL
ASHLAND        CLOUDY    73  48  41 SW13G23   29.92F
HAYWARD        MOSUNNY   73  44  35 SW17G24   29.95F
SIREN          SUNNY     74  41  30 SW16G23   29.93F
CUMBERLAND     SUNNY     70  43  37 SW15      29.97F
RICE LAKE      SUNNY     73  43  33 SW10      29.98F
CHETEK         SUNNY     73  47  39 SW8       29.97F
LADYSMITH      MOSUNNY   73  46  36 SW8       30.00F
EAU CLAIRE     NOT AVBL
MENOMONIE      SUNNY     75  46  34 S10G17    29.98F
NEW RICHMOND   SUNNY     74  40  29 SW12G21   29.96F
OSCEOLA        SUNNY     76  43  31 S12       29.98F
$$

WIZ003>005-009-010-017-018-272200-
NORTH CENTRAL WISCONSIN

CITY           SKY/WX    TMP DP  RH WIND       PRES   REMARKS
MANITOWISH WTR MOSUNNY   71  47  41 S9        29.96F
ARBOR VITAE    MOSUNNY   72  46  40 SW6       29.96F
WOODRUFF       MOSUNNY   72  46  40 SW6       29.96F
RHINELANDER    SUNNY     73  47  39 W9        29.99F
EAGLE RIVER    PTSUNNY   71  44  38 SW8       29.96F
LAND O LAKES   MOSUNNY   73  42  31 SW6       29.98F
PHILLIPS       SUNNY     70  47  43 SW7       29.98F
TOMAHAWK       NOT AVBL
MEDFORD        MOSUNNY   70  48  45 W9        30.00F
MERRILL        MOSUNNY   72  48  43 W10       30.00S
$$

WIZ029-030-035-036-043>047-272200-
CENTRAL WISCONSIN

CITY           SKY/WX    TMP DP  RH WIND       PRES   REMARKS
WAUSAU         SUNNY     71  46  40 S5        29.99F
MOSINEE        PTSUNNY   73  46  38 SW8       30.02F
MARSHFIELD     MOSUNNY   73  47  39 SW6       30.00F
STEVENS POINT  PTSUNNY   71  45  40 W3        30.02F
WAUPACA        PTSUNNY   76  45  33 W5        30.01F
WAUTOMA        MOSUNNY   75  46  35 W10       30.02F
WISC RAPIDS    PTSUNNY   73  48  41 S10       30.02F
CAMP DOUGLAS   NOT AVBL
$$

WIZ011>013-019>022-031-037>040-048>050-272200-
NORTHEAST WISCONSIN

CITY           SKY/WX    TMP DP  RH WIND       PRES   REMARKS
ANTIGO         MOSUNNY   71  49  46 W12       30.00F
SHAWANO        SUNNY     75  46  35 NW5       29.98F
OCONTO         MOSUNNY   74  48  39 CALM      29.98F
STURGEON BAY     N/A     71  54  54 SE13      29.99F
GREEN BAY      MOSUNNY   75  51  43 W9        29.99F
MANITOWOC      NOT AVBL
APPLETON       PTSUNNY   72  41  33 W7        30.00F
CLINTONVILLE   SUNNY     73  41  31 W10       30.00S
OSHKOSH        MOSUNNY   74  47  38 W8        30.01F
$$

WIZ032>034-041-042-053>061-272200-
SOUTHWEST WISCONSIN

CITY           SKY/WX    TMP DP  RH WIND       PRES   REMARKS
LA CROSSE      SUNNY     81  46  29 S12       30.00F HX  80
SPARTA         MOSUNNY   73  48  40 S6        30.03F
VIROQUA        MOSUNNY   73  47  39 SW10G17   30.04F
BOSCOBEL       SUNNY     76  46  34 SW8       30.03F
PRAIRIE DU CHI SUNNY     74  42  31 S8        30.03F
PLATTEVILLE    SUNNY     74  44  34 S9G17     30.06F
$$

WIZ056-057-062-063-064-067-068-272200-
SOUTH CENTRAL WISCONSIN

CITY           SKY/WX    TMP DP  RH WIND       PRES   REMARKS
REEDSBURG      MOSUNNY   74  48  39 SW6       30.03F
BARABOO/DELLS  MOSUNNY   74  43  32 W9        30.04F
LONE ROCK      NOT AVBL
MINERAL POINT  SUNNY     73  43  33 W7        30.06F
MADISON        PTSUNNY   74  47  38 SW8       30.04F
MIDDLETON      PTSUNNY   74  46  35 SW7       30.05F
WATERTOWN      NOT AVBL
MONROE         SUNNY     73  43  33 SW6       30.07S
JANESVILLE     MOSUNNY   75  41  29 SW9       30.05F
$$

WIZ051-052-058>065-066-070>072-272200-
SOUTHEAST WISCONSIN

CITY           SKY/WX    TMP DP  RH WIND       PRES   REMARKS
MILWAUKEE      PTSUNNY   74  47  38 VRB6      30.04F
WAUKESHA       MOSUNNY   70  45  40 SW8       30.06F
MILWAUKEE/TIMM PTSUNNY   73  41  31 SW10      30.05F
RACINE         MOSUNNY   72  50  45 SE9       30.07F
KENOSHA        SUNNY     74  48  39 VRB5      30.06F
FOND DU LAC    MOSUNNY   73  43  33 W7        30.02F
SHEBOYGAN      SUNNY     74  50  42 W7        30.02F
WEST BEND      MOSUNNY   72  43  35 W8G20     30.04F
JUNEAU         MOSUNNY   71  45  39 W6        30.05F
$$

LSZ147-162-272200-
LAKE SUPERIOR

STATION/POSITION TIME  TEMP    WIND        PRES    WAVE
                       AIR SEA DIR/SP/G            HT/PER
                 (UTC) (F)     (DEG/KT/KT) (MB)    (FT/S)
W MID LAKE BUOY  1950   47 39  210/ 10/ 10 1013.7F   1
DEVILS ISLAND    2000   65     250/ 11/ 14 1012.9F
SAXON HARBOR     2040   74     230/  8/ 15 1012.5F
$$

LMZ867-665-643>646-272200-
LAKE MICHIGAN

STATION/POSITION TIME  TEMP    WIND        PRES    WAVE
                       AIR SEA DIR/SP/G            HT/PER
                 (UTC) (F)     (DEG/KT/KT) (MB)    (FT/S)
CHAMBERS ISLAND  2040   71     170/  7/ 11 1014.9F
S GREEN BAY BUOY 2030   69     190/  8/ 10 1015.3F
N MID LAKE BUOY  1950   58 58  190/ 10/ 12 1016.9F   1
NORTHPORT PIER   2040   66     150/ 10/ 16 1015.6F
KEWAUNEE LAKESHO 2030   55     180/  9/ 11 1016.0F
SHEBOYGAN LAKESH 2000   59     160/ 16/ 17 1016.9F
PORT WASHINGTON  2040   65     180/  8/ 13 1017.9F
ATWATER BUOY     1909   61 56  150/ 10/ 12 1018.2F
MILWAUKEE LAKESH 2030   62     140/  8/ 11   N/A
S MID LAKE BUOY  1950   62 62  180/ 10/ 10 1018.9F   1/ 5
KENOSHA   LAKESH 2000   63     160/ 10/ 14 1017.9
$$

TC  - TEMPERATURE IN CELSIUS
VSB - VISIBILITY IN STATUTE MILES
WCI - WIND CHILL INDEX
HX  - HEAT INDEX





USA.gov is the U.S. government's official web portal to all federal, state and local government web resources and services.